Weather History for Sterling Muni, Sterling, CO, CO

Change the Weather History Date:

Thursday, August 14, 2014

  Actual Average Record
Temperature  
Mean Temperature 80 °F -  
Max Temperature 95 °F 86 °F 95 °F (2014)
Min Temperature 66 °F 58 °F 53 °F (2013)
Cooling Degree Days 16    
Growing Degree Days 30 (Base 50)    
Moisture  
Dew Point 65 °F    
Average Humidity 70    
Maximum Humidity 100    
Minimum Humidity 34    
Precipitation  
Precipitation 0.09 in - - ()
Sea Level Pressure  
Sea Level Pressure 29.98 in    
Wind  
Wind Speed 6 mph (NE)    
Max Wind Speed 25 mph    
Max Gust Speed 34 mph    
Visibility 10 miles    
Events Rain , Thunderstorm    
Averages and records for this station are not official NWS values.
T = Trace of Precipitation, MM = Missing Value Source: NWS Daily Summary

Daily Weather History Graph

Daily Weather History Graph

Search for Another Location

Airport:

Trip Planner

Search our weather history database for the weather conditions in past years. The results will help you decide how hot, cold, wet, or windy it might be!

Date:

Astronomy

Aug. 14, 2014 Rise Set
Actual Time 6:02 AM MDT 7:52 PM MDT
Civil Twilight 5:33 AM MDT 8:21 PM MDT
Nautical Twilight 4:57 AM MDT 8:57 PM MDT
Astronomical Twilight 4:18 AM MDT 9:35 PM MDT
Moon 10:14 PM MDT (8/14) 10:43 AM MDT (8/14)
Length of Visible Light 14h 48m
Length of Day
13h 49m
Waning Gibbous, 78% of the Moon is Illuminated
Aug 14
Waning Gibbous
Aug 17
Last Quarter
Aug 25
New
Sep 2
First Quarter
Sep 8
Full

Hourly Weather History & Observations

Time (MDT) Temp. Heat Index Dew Point Humidity Pressure Visibility Wind Dir Wind Speed Gust Speed Precip Events Conditions
12:10 AM 77.0 °F - 64.4 °F 65% 30.03 in 10.0 mi SSE 13.8 mph 20.7 mph N/A   Clear
12:30 AM 77.0 °F - 64.4 °F 65% 30.02 in 10.0 mi SSE 10.4 mph 18.4 mph N/A   Clear
12:50 AM 75.2 °F - 64.4 °F 69% 30.02 in 10.0 mi South 9.2 mph 18.4 mph N/A   Clear
1:10 AM 73.4 °F - 64.4 °F 73% 30.03 in 10.0 mi West 5.8 mph - N/A   Clear
1:50 AM 73.4 °F - 64.4 °F 73% 30.01 in 10.0 mi South 6.9 mph - N/A   Clear
2:10 AM 73.4 °F - 64.4 °F 73% 30.02 in 10.0 mi Calm Calm - N/A   Clear
2:30 AM 71.6 °F - 64.4 °F 78% 30.02 in 10.0 mi Calm Calm - N/A   Clear
2:50 AM 69.8 °F - 64.4 °F 83% 30.01 in 10.0 mi South 4.6 mph - N/A   Clear
3:10 AM 69.8 °F - 64.4 °F 83% 30.01 in 10.0 mi Calm Calm - N/A   Clear
3:30 AM 69.8 °F - 64.4 °F 83% 30.01 in 10.0 mi SE 3.5 mph - N/A   Clear
3:50 AM 69.8 °F - 64.4 °F 83% 30.00 in 10.0 mi ESE 3.5 mph - N/A   Clear
4:10 AM 69.8 °F - 64.4 °F 83% 30.00 in 10.0 mi Calm Calm - N/A   Clear
4:30 AM 68.0 °F - 64.4 °F 88% 30.00 in 10.0 mi ENE 3.5 mph - N/A   Clear
4:50 AM 68.0 °F - 64.4 °F 88% 30.00 in 10.0 mi Calm Calm - N/A   Clear
5:10 AM 66.2 °F - 62.6 °F 88% 29.99 in 10.0 mi Calm Calm - N/A   Clear
5:30 AM 66.2 °F - 64.4 °F 94% 29.99 in 10.0 mi NE 5.8 mph - N/A   Clear
5:50 AM 68.0 °F - 64.4 °F 88% 29.99 in 10.0 mi NE 4.6 mph - N/A   Clear
6:10 AM 68.0 °F - 64.4 °F 88% 29.99 in 10.0 mi ENE 5.8 mph - N/A   Clear
6:30 AM 68.0 °F - 64.4 °F 88% 30.00 in 10.0 mi Calm Calm - N/A   Clear
6:50 AM 68.0 °F - 64.4 °F 88% 30.00 in 10.0 mi Calm Calm - N/A   Clear
7:10 AM 68.0 °F - 64.4 °F 88% 30.00 in 10.0 mi North 3.5 mph - N/A   Clear
7:30 AM 69.8 °F - 64.4 °F 83% 30.01 in 10.0 mi North 3.5 mph - N/A   Clear
7:50 AM 71.6 °F - 66.2 °F 83% 30.01 in 10.0 mi NNE 3.5 mph - N/A   Clear
8:10 AM 73.4 °F - 66.2 °F 78% 30.01 in 10.0 mi NNE 4.6 mph - N/A   Clear
8:30 AM 73.4 °F - 64.4 °F 73% 30.01 in 10.0 mi NE 3.5 mph - N/A   Clear
8:50 AM 75.2 °F - 64.4 °F 69% 30.01 in 10.0 mi Calm Calm - N/A   Clear
9:10 AM 77.0 °F - 64.4 °F 65% 30.00 in 10.0 mi NE 3.5 mph - N/A   Clear
9:30 AM 77.0 °F - 64.4 °F 65% 30.00 in 10.0 mi Calm Calm - N/A   Clear
9:50 AM 77.0 °F - 66.2 °F 69% 30.00 in 10.0 mi ENE 3.5 mph - N/A   Clear
10:10 AM 78.8 °F - 66.2 °F 65% 29.99 in 10.0 mi NE 3.5 mph - N/A   Clear
10:30 AM 80.6 °F 82.7 °F 66.2 °F 61% 29.99 in 10.0 mi NE 3.5 mph - N/A   Clear
10:50 AM 82.4 °F 83.9 °F 64.4 °F 54% 29.99 in 10.0 mi NE 4.6 mph - N/A   Clear
11:10 AM 80.6 °F 82.7 °F 66.2 °F 61% 29.99 in 10.0 mi NNE 3.5 mph - N/A   Clear
11:30 AM 82.4 °F 84.6 °F 66.2 °F 58% 29.98 in 10.0 mi North 5.8 mph - N/A   Clear
11:50 AM 84.2 °F 87.3 °F 68.0 °F 58% 29.98 in 10.0 mi North 4.6 mph - N/A   Clear
12:10 PM 86.0 °F 89.4 °F 68.0 °F 55% 29.97 in 10.0 mi North 3.5 mph - N/A   Clear
12:30 PM 86.0 °F 89.4 °F 68.0 °F 55% 29.97 in 10.0 mi NE 5.8 mph - N/A   Clear
12:50 PM 89.6 °F 93.4 °F 68.0 °F 49% 29.96 in 10.0 mi North 4.6 mph - N/A   Clear
1:10 PM 89.6 °F 93.4 °F 68.0 °F 49% 29.95 in 10.0 mi ENE 4.6 mph - N/A   Clear
1:30 PM 91.4 °F 93.2 °F 64.4 °F 41% 29.95 in 10.0 mi East 5.8 mph - N/A   Clear
1:50 PM 91.4 °F 94.0 °F 66.2 °F 43% 29.95 in 10.0 mi NNE 4.6 mph - N/A   Clear
2:10 PM 93.2 °F 97.7 °F 68.0 °F 44% 29.94 in 10.0 mi NNE 6.9 mph - N/A   Clear
2:30 PM 93.2 °F 94.9 °F 64.4 °F 38% 29.94 in 10.0 mi NE 4.6 mph - N/A   Clear
2:50 PM 91.4 °F 93.2 °F 64.4 °F 41% 29.93 in 10.0 mi NE 3.5 mph - N/A   Clear
3:10 PM 91.4 °F 92.1 °F 62.6 °F 38% 29.93 in 10.0 mi East 5.8 mph - N/A   Clear
3:30 PM 93.2 °F 94.1 °F 62.6 °F 36% 29.93 in 10.0 mi ESE 5.8 mph - N/A   Clear
3:50 PM 91.4 °F 92.1 °F 62.6 °F 38% 29.92 in 10.0 mi SSE 4.6 mph - N/A   Clear
4:10 PM 95.0 °F 97.0 °F 64.4 °F 36% 29.92 in 10.0 mi South 4.6 mph - N/A   Clear
4:30 PM 95.0 °F 96.0 °F 62.6 °F 34% 29.90 in 10.0 mi SSW 3.5 mph - N/A Thunderstorm Clear
4:50 PM 91.4 °F 91.4 °F 60.8 °F 36% 29.90 in 10.0 mi SE 4.6 mph - N/A   Scattered Clouds
5:10 PM 89.6 °F 89.5 °F 60.8 °F 38% 29.90 in 10.0 mi NNE 5.8 mph - N/A   Mostly Cloudy
5:30 PM 84.2 °F 85.0 °F 62.6 °F 48% 29.92 in 10.0 mi NNE 15.0 mph 23.0 mph N/A   Mostly Cloudy
5:50 PM 78.8 °F - 64.4 °F 61% 29.92 in 10.0 mi NE 13.8 mph - N/A   Mostly Cloudy
6:10 PM 78.8 °F - 62.6 °F 57% 29.95 in 10.0 mi WNW 25.3 mph 32.2 mph N/A Thunderstorm Mostly Cloudy
6:30 PM 77.0 °F - 62.6 °F 61% 29.95 in 10.0 mi NW 23.0 mph 34.5 mph N/A   Overcast
6:50 PM 69.8 °F - 66.2 °F 88% 29.98 in 7.0 mi NW 21.9 mph - 0.04 in Rain , Thunderstorm Light Thunderstorms and Rain
7:10 PM 69.8 °F - 62.6 °F 78% 29.98 in 10.0 mi NW 24.2 mph 34.5 mph N/A Rain , Thunderstorm Light Thunderstorms and Rain
7:30 PM 69.8 °F - 62.6 °F 78% 29.97 in 10.0 mi NNW 19.6 mph - 0.03 in Rain Light Rain
7:50 PM 71.6 °F - 64.4 °F 78% 30.01 in 10.0 mi SSW 15.0 mph 19.6 mph 0.03 in Rain , Thunderstorm Light Thunderstorms and Rain
8:10 PM 69.8 °F - 68.0 °F 94% 30.03 in 10.0 mi SSW 12.7 mph 24.2 mph 0.01 in Rain Light Rain
8:30 PM 69.8 °F - 68.0 °F 94% 30.02 in 10.0 mi SSW 9.2 mph - 0.01 in Rain Light Rain
8:40 PM 69.8 °F - 68.0 °F 94% 30.02 in 10.0 mi SW 4.6 mph - 0.01 in Rain Light Rain
9:50 PM 68.0 °F - 66.2 °F 94% 30.00 in 10.0 mi SW 4.6 mph - 0.01 in   Clear
10:10 PM 68.0 °F - 68.0 °F 100% 30.00 in 10.0 mi West 3.5 mph - N/A   Scattered Clouds
10:30 PM 68.0 °F - 68.0 °F 100% 30.02 in 10.0 mi NW 12.7 mph - N/A   Scattered Clouds
10:50 PM 69.8 °F - 66.2 °F 88% 30.01 in 10.0 mi NNW 9.2 mph - N/A   Scattered Clouds
11:10 PM 69.8 °F - 66.2 °F 88% 30.00 in 10.0 mi North 5.8 mph - N/A   Clear
11:30 PM 68.0 °F - 64.4 °F 88% 29.98 in 10.0 mi Calm Calm - N/A   Clear
11:50 PM 66.2 °F - 64.4 °F 94% 29.97 in 10.0 mi SE 3.5 mph - N/A   Clear